sat.trackr.live / text

‹ back to catalog

STARLINK-6299

NORAD 57358 · 2023-099AG

PAYLOAD ACTIVE UNKNOWN

§ Identity

Operator
Country
US
Launch date
2023-07-16
Launch site
AFETR
Launch vehicle
Mass (kg)
RCS (m²)

Purposes: comms

External: N2YO · Heavens-Above · Gunter

§ Orbital elements

Epoch: 2026-09-20T22:18:50.002560Z

Period
94.27 min
Inclination
43.0036°
Eccentricity
0.0001221
Mean motion
15.27581614 rev/d
Perigee alt
482.2 km
Apogee alt
483.9 km
Semi-major
6,861.2 km
B*
-3.8089e-5
RAAN
218.6527°
Arg perigee
257.6604°
Mean anomaly
102.4111°
Rev number
17,680

§ Raw data

STARLINK-62991 57358U 23099AG  26263.92974540 -.00001310  00000+0 -38089-4 0  99982 57358  43.0036 218.6527 0001221 257.6604 102.4111 15.27581614176805

JSON: /api/v1/satellites/57358 · /tle

For live sub-satellite position, see the globe view (requires WebGL).

§ Visibility from observer

Set your observer location to see the next 7 days of passes ≥ 10°. The values pass through the URL so the page stays shareable.

No JS? Fill the form by hand. The geolocation button needs JavaScript.